This demonstration page uses our WeatherBlox Daily Observations layout. Learn more.

Left ArrowRight Arrow

39.12711, -84.51439

Hourly Observations for March 28, 2021

Temp ( °F °C ) Dew Point ( °F °C ) Humidity (%) Winds ( mph kmh ) Pressure ( in mb ) Visibility ( mi km ) Precip ( " mm )
12:19 am 00:19 Mostly Cloudy with Thunderstorms 62 16.7 56 13.3 80 80 S 6 9 29.79 1009 10 16.0934 0 0
12:40 am 00:40 Mostly Cloudy with Light Rain 61 16.1 56 13.3 84 84 S 5 7 29.77 1008 10 16.0934 0.001 0.001
12:53 am 00:53 Mostly Cloudy 60 15.6 56 13.3 86 86 SSW 5 7 29.75 1008 10 16.0934 0.001 0.001
1:27 am 01:27 Mostly Cloudy with Nearby Thunderstorms 60 15.6 56 13.3 86 86 S 6 9 29.73 1007 10 16.0934 0.001 0.001
1:43 am 01:43 Cloudy with Light Rain 60 15.6 56 13.3 86 86 S 6 9 29.73 1007 10 16.0934 0.001 0.001
1:53 am 01:53 Cloudy with Nearby Thunderstorms 60 15.6 56 13.3 86 86 WSW 3 6 29.71 1006 8 12.87472 0.001 0.001
1:56 am 01:56 Cloudy with Light Thunderstorms 60 15.6 56 13.3 86 86 Calm 29.71 1006 8 12.87472 0.01 0.254
2:14 am 02:14 Cloudy with Thunderstorms 60 15.6 56 13.3 86 86 Calm 29.7 1006 10 16.0934 0.01 0.254
2:33 am 02:33 Cloudy with Light Thunderstorms 60 15.6 57 13.9 90 90 NW 13 20 29.73 1007 7 11.26538 0.02 0.508
2:45 am 02:45 Cloudy with Nearby Thunderstorms 61 16.1 57 13.9 87 87 S 7 11 29.71 1006 2.5 4.02335 0.11 2.794
2:53 am 02:53 Cloudy with Nearby Thunderstorms 60 15.6 57 13.9 90 90 NNW 5 7 29.72 1007 2.5 4.02335 0.14 3.556
2:58 am 02:58 Cloudy with Heavy Thunderstorms 60 15.6 58 14.4 93 93 Calm 29.73 1007 1.5 2.41401 0.09 2.286
3:13 am 03:13 Cloudy with Heavy Rain 59 15 58 14.4 96 96 Calm 29.73 1007 1 1.60934 0.31 7.874
3:24 am 03:24 Cloudy with Rain 59 15 58 14.4 96 96 Calm 29.72 1006 3 4.82802 0.35 8.89
3:43 am 03:43 Cloudy with Light Rain 59 15 58 14.4 96 96 Calm 29.69 1005 3 4.82802 0.37 9.398
3:45 am 03:45 Cloudy with Light Rain 59 15 58 14.4 96 96 ESE 3 6 29.69 1005 1.75 2.816345 0.37 9.398
3:53 am 03:53 Mostly Cloudy with Light Rain 59 15 58 14.4 96 96 ESE 3 6 29.66 1005 2.5 4.02335 0.37 9.398
4:00 am 04:00 Mostly Cloudy 59 15 58 14.4 96 96 SE 3 6 29.67 1005 10 16.0934 0.001 0.001
4:07 am 04:07 Mostly Cloudy with Mist and Fog 57 13.9 57 13.9 100 100 Calm 29.66 1004 1.5 2.41401 0.001 0.001
4:15 am 04:15 Mostly Cloudy with Fog 57 13.9 56 13.3 96 96 SW 6 9 29.67 1005 0.5 0.80467 0.001 0.001
4:22 am 04:22 Cloudy with Mist and Fog 57 13.9 57 13.9 100 100 SW 5 7 29.67 1005 2.5 4.02335 0.001 0.001
4:29 am 04:29 Cloudy with Mist and Fog 58 14.4 57 13.9 97 97 S 6 9 29.66 1004 5 8.0467 0.001 0.001
4:37 am 04:37 Cloudy with Light Rain 58 14.4 57 13.9 97 97 SW 5 7 29.66 1004 5 8.0467 0.001 0.001
4:53 am 04:53 Cloudy with Light Rain 58 14.4 57 13.9 97 97 SW 6 9 29.65 1004 8 12.87472 0.001 0.001
5:06 am 05:06 Cloudy with Light Rain 58 14.4 57 13.9 97 97 SW 6 9 29.66 1004 9 14.48406 0.001 0.001
5:13 am 05:13 Cloudy with Light Rain 58 14.4 57 13.9 97 97 SSW 8 13 29.66 1004 9 14.48406 0.001 0.001
5:41 am 05:41 Cloudy 60 15.6 57 13.9 90 90 SSW 9 15 29.66 1004 10 16.0934 0.001 0.001
5:53 am 05:53 Cloudy with Rain 57 13.9 55 12.8 93 93 NNW 18 30 29.67 1005 4 6.43736 0.03 0.762
6:16 am 06:16 Cloudy 56 13.3 54 12.2 93 93 NW 9 15 29.7 1006 10 16.0934 0.001 0.001
6:46 am 06:46 Cloudy 55 12.8 55 12.8 100 100 W 3 6 29.71 1006 10 16.0934 0.001 0.001
6:53 am 06:53 Cloudy 55 12.8 55 12.8 100 100 W 5 7 29.71 1006 10 16.0934 0.001 0.001
7:53 am 07:53 Cloudy 55 12.8 54 12.2 96 96 VRB 3 6 29.72 1006 10 16.0934 0.001 0.001
8:53 am 08:53 Cloudy 54 12.2 52 11.1 93 93 WNW 10 17 29.74 1007 10 16.0934 0.001 0.001
9:53 am 09:53 Mostly Cloudy 53 11.7 47 8.3 80 80 W 13 20 29.76 1008 10 16.0934 0.001 0.001
10:53 am 10:53 Cloudy 52 11.1 41 5 66 66 W 22 35 29.82 1010 10 16.0934 0 0
11:53 am 11:53 Mostly Cloudy 52 11.1 36 2.2 55 55 WNW 23 37 29.85 1011 10 16.0934 0 0
12:53 pm 12:53 Mostly Cloudy 52 11.1 35 1.7 53 53 W 22 35 29.89 1012 10 16.0934 0 0
1:53 pm 13:53 Cloudy 50 10 35 1.7 57 57 W 17 28 29.92 1013 10 16.0934 0 0
2:53 pm 14:53 Cloudy 49 9.4 34 1.1 56 56 WNW 22 35 29.96 1014 10 16.0934 0 0
3:53 pm 15:53 Cloudy 47 8.3 33 0.6 59 59 W 20 31 29.99 1016 10 16.0934 0 0
4:53 pm 16:53 Cloudy 46 7.8 31 -0.6 56 56 W 25 41 30.03 1017 10 16.0934 0 0
5:53 pm 17:53 Cloudy 46 7.8 29 -1.7 51 51 W 15 24 30.07 1018 10 16.0934 0 0
6:53 pm 18:53 Cloudy 47 8.3 29 -1.7 50 50 W 20 31 30.09 1019 10 16.0934 0 0
7:53 pm 19:53 Cloudy 46 7.8 27 -2.8 47 47 W 13 20 30.12 1020 10 16.0934 0 0
8:53 pm 20:53 Partly Cloudy 45 7.2 24 -4.4 44 44 NW 13 20 30.16 1021 10 16.0934 0 0
9:53 pm 21:53 Clear 44 6.7 23 -5 43 43 WNW 14 22 30.18 1022 10 16.0934 0 0
10:53 pm 22:53 Clear 43 6.1 23 -5 45 45 NW 9 15 30.19 1022 10 16.0934 0 0
11:53 pm 23:53 Clear 41 5 23 -5 49 49 W 7 11 30.2 1023 10 16.0934 0 0

Powered by AerisWeather